Tracking 17264 objects as of 29-August-2015
HD Live streaming from Space Station

MOLNIYA 3-51

Track MOLNIYA 3-51 now!
MOLNIYA 3-51 is classified as:


NORAD ID: 26867
Int'l Code: 2001-030A
Perigee: 286.6 km
Apogee: 32,563.3 km
Inclination: 62.5 °
Period: 570.9 minutes
Semi major axis: 22795 km
RCS: 12.5893 m2 (large)
Launch date: July 20, 2001
Source: Commonwealth of Independent States (former USSR) (CIS)

Can carry satellite broadcast television as well as military and manned voice communcations; highly elliptical orbit developed for northern latitudes beyond reach of geostationary satellites.
Your satellite tracking list
Your tracking list is empty





NASA's NSSDC Master Catalog

Two Line Element Set (TLE):
1 26867U 01030A   15240.76030113  .00000996  00000-0  29368-3 0  9991
2 26867 062.4534 205.6517 7079472 262.4395 095.9287 02.52241418106060

Source of the keplerian elements: AFSPC

N2YO: 284